This demonstration page uses our WeatherBlox Daily Observations layout. Learn more.

41.55636, -103.73856

Hourly Observations for June 14, 2017

Temp ( °F °C ) Dew Point ( °F °C ) Humidity (%) Winds ( mph kmh ) Pressure ( in mb ) Visibility ( mi km ) Precip ( " mm )
12:53 am 00:53 Clear 59 15 39 3.9 48 48 WNW 15 24 29.76 1008 10 16.0934 0 0
1:53 am 01:53 Clear 56 13.3 40 4.4 55 55 NW 7 11 29.76 1008 10 16.0934 0 0
2:53 am 02:53 Clear 55 12.8 40 4.4 57 57 WNW 8 13 29.76 1008 10 16.0934 0 0
3:53 am 03:53 Clear 53 11.7 41 5 64 64 NW 8 13 29.8 1009 10 16.0934 0 0
4:53 am 04:53 Clear 56 13.3 40 4.4 55 55 WNW 8 13 29.81 1010 10 16.0934 0 0
5:53 am 05:53 Sunny 58 14.4 40 4.4 51 51 WNW 10 17 29.82 1010 10 16.0934 0 0
6:53 am 06:53 Sunny 60 15.6 41 5 50 50 W 8 13 29.83 1010 10 16.0934 0 0
7:53 am 07:53 Sunny 64 17.8 41 5 43 43 W 17 28 29.83 1010 10 16.0934 0 0
8:53 am 08:53 Sunny 69 20.6 41 5 36 36 W 16 26 29.82 1010 10 16.0934 0 0
9:53 am 09:53 Sunny 72 22.2 38 3.3 29 29 W 21 33 29.81 1010 10 16.0934 0 0
10:53 am 10:53 Sunny 75 23.9 38 3.3 26 26 W 22 35 29.79 1009 10 16.0934 0 0
11:53 am 11:53 Sunny 77 25 35 1.7 22 22 WNW 22 35 29.8 1009 10 16.0934 0 0
12:53 pm 12:53 Sunny 79 26.1 36 2.2 21 21 WNW 14 22 29.8 1009 10 16.0934 0 0
1:53 pm 13:53 Sunny 82 27.8 36 2.2 19 19 W 12 19 29.78 1008 10 16.0934 0 0
2:53 pm 14:53 Sunny 83 28.3 32 0 16 16 W 20 31 29.76 1008 10 16.0934 0 0
3:53 pm 15:53 Sunny 84 28.9 32 0 15 15 WNW 23 37 29.76 1008 10 16.0934 0 0
4:53 pm 16:53 Sunny 84 28.9 31 -0.6 15 15 WNW 24 39 29.75 1008 10 16.0934 0 0
5:53 pm 17:53 Sunny 83 28.3 30 -1.1 15 15 WNW 22 35 29.75 1007 10 16.0934 0 0
6:53 pm 18:53 Sunny 82 27.8 28 -2.2 14 14 WNW 20 31 29.75 1008 10 16.0934 0 0
7:53 pm 19:53 Sunny 77 25 32 0 19 19 WNW 10 17 29.77 1008 10 16.0934 0 0
8:53 pm 20:53 Clear 68 20 36 2.2 31 31 W 3 6 29.81 1009 10 16.0934 0 0
9:53 pm 21:53 Clear 67 19.4 36 2.2 32 32 W 6 9 29.84 1010 10 16.0934 0 0
10:53 pm 22:53 Clear 61 16.1 39 3.9 44 44 W 3 6 29.86 1011 10 16.0934 0 0
11:53 pm 23:53 Clear 53 11.7 43 6.1 69 69 N 3 6 29.88 1012 10 16.0934 0 0

Powered by AerisWeather